• In Russia
  • List of Countries
  • For 7 days
  • Water Temperature
  • Satellite Maps
  • Weather Map
  • Weather Widgets
  • user-avatar
    Login

    Hourly Weather Gashey

    Today, 24 September, Monday

    Time Temperature Precipitation Wind Pressure Humidity
    00:00 +5°C° 0 mm 1 mps 695 mmHg 79%
    01:00 +5°C° 0 mm 1 mps 695 mmHg 80%
    02:00 +4°C° 0 mm 1 mps 695 mmHg 81%
    03:00 +4°C° 0 mm 1 mps 695 mmHg 82%
    04:00 +4°C° 0 mm 1 mps 694 mmHg 83%
    05:00 +4°C° 0 mm 1 mps 694 mmHg 80%
    06:00 +5°C° 0 mm 1 mps 694 mmHg 77%
    07:00 +5°C° 0 mm 1 mps 695 mmHg 73%
    08:00 +8°C° 0 mm 1 mps 695 mmHg 66%
    09:00 +10°C° 0 mm 1 mps 695 mmHg 59%
    10:00 +12°C° 0 mm 1 mps 695 mmHg 51%
    11:00 +13°C° 0 mm 1 mps 694 mmHg 47%
    12:00 +15°C° 0 mm 1 mps 694 mmHg 44%
    13:00 +15°C° 0 mm 0 mps 694 mmHg 39%
    14:00 +15°C° 0 mm 0 mps 694 mmHg 40%
    15:00 +15°C° 0 mm 0 mps 694 mmHg 42%
    16:00 +14°C° 0 mm 0 mps 694 mmHg 43%
    17:00 +12°C° 0 mm 0 mps 693 mmHg 48%
    18:00 +10°C° 0 mm 0 mps 693 mmHg 54%
    19:00 +9°C° 0 mm 1 mps 693 mmHg 59%
    20:00 +9°C° 0 mm 1 mps 693 mmHg 61%
    21:00 +8°C° 0 mm 1 mps 693 mmHg 63%
    22:00 +7°C° 0 mm 1 mps 693 mmHg 65%
    23:00 +7°C° 0 mm 1 mps 693 mmHg 66%

    Tomorrow, 25 September, Tuesday

    Time Temperature Precipitation Wind Pressure Humidity
    00:00 +6°C° 0 mm 1 mps 694 mmHg 67%
    01:00 +6°C° 0 mm 1 mps 694 mmHg 69%
    02:00 +6°C° 0 mm 1 mps 694 mmHg 70%
    03:00 +5°C° 0 mm 1 mps 694 mmHg 72%
    04:00 +5°C° 0 mm 1 mps 694 mmHg 73%
    05:00 +6°C° 0 mm 1 mps 694 mmHg 71%
    06:00 +6°C° 0 mm 1 mps 694 mmHg 69%
    07:00 +7°C° 0 mm 1 mps 694 mmHg 67%
    08:00 +10°C° 0 mm 1 mps 694 mmHg 59%
    09:00 +12°C° 0 mm 1 mps 694 mmHg 52%
    10:00 +15°C° 0 mm 1 mps 694 mmHg 45%
    11:00 +16°C° 0 mm 1 mps 694 mmHg 42%
    12:00 +18°C° 0 mm 1 mps 694 mmHg 40%
    13:00 +19°C° 0 mm 1 mps 694 mmHg 38%
    14:00 +19°C° 0 mm 1 mps 694 mmHg 39%
    15:00 +18°C° 0 mm 1 mps 694 mmHg 40%
    16:00 +18°C° 0 mm 1 mps 693 mmHg 42%
    17:00 +15°C° 0 mm 1 mps 693 mmHg 49%
    18:00 +13°C° 0 mm 1 mps 693 mmHg 56%
    19:00 +10°C° 0 mm 1 mps 692 mmHg 62%
    20:00 +10°C° 0 mm 1 mps 693 mmHg 64%
    21:00 +9°C° 0 mm 1 mps 693 mmHg 66%
    22:00 +9°C° 0 mm 1 mps 693 mmHg 67%
    23:00 +9°C° 0 mm 1 mps 692 mmHg 69%

    Day after tomorrow, 26 September, Wednesday

    Time Temperature Precipitation Wind Pressure Humidity
    00:00 +8°C° 0 mm 1 mps 692 mmHg 71%
    01:00 +8°C° 0 mm 1 mps 692 mmHg 73%
    02:00 +7°C° 0 mm 1 mps 692 mmHg 75%
    03:00 +7°C° 0 mm 1 mps 692 mmHg 76%
    04:00 +7°C° 0 mm 1 mps 692 mmHg 78%
    05:00 +7°C° 0 mm 1 mps 692 mmHg 76%
    06:00 +8°C° 0 mm 1 mps 692 mmHg 75%
    07:00 +9°C° 0 mm 1 mps 692 mmHg 73%
    08:00 +11°C° 0 mm 1 mps 692 mmHg 66%
    09:00 +13°C° 0 mm 1 mps 692 mmHg 58%
    10:00 +16°C° 0 mm 1 mps 692 mmHg 51%
    11:00 +18°C° 0 mm 1 mps 691 mmHg 49%
    12:00 +18°C° 0 mm 1 mps 691 mmHg 47%
    13:00 +19°C° 0 mm 1 mps 691 mmHg 45%
    14:00 +18°C° 0.1 mm 1 mps 690 mmHg 51%
    15:00 +16°C° 0.1 mm 2 mps 690 mmHg 57%
    16:00 +15°C° 0.1 mm 2 mps 690 mmHg 63%
    17:00 +13°C° 0.1 mm 3 mps 689 mmHg 69%
    18:00 +11°C° 0.1 mm 3 mps 689 mmHg 75%
    19:00 +8°C° 0.1 mm 4 mps 689 mmHg 81%
    20:00 +8°C° 2 mm 4 mps 689 mmHg 84%
    21:00 +7°C° 2 mm 4 mps 689 mmHg 87%
    22:00 +6°C° 2 mm 4 mps 689 mmHg 90%
    23:00 +6°C° 1.5 mm 4 mps 689 mmHg 90%

    27 September, Thursday

    Time Temperature Precipitation Wind Pressure Humidity
    00:00 +7°C° 1.5 mm 3 mps 689 mmHg 89%
    01:00 +5°C° 1.5 mm 3 mps 688 mmHg 89%
    02:00 +5°C° 0.2 mm 4 mps 689 mmHg 88%
    03:00 +5°C° 0.2 mm 4 mps 689 mmHg 87%
    04:00 +5°C° 0.2 mm 5 mps 689 mmHg 87%
    05:00 +5°C° 0.4 mm 5 mps 689 mmHg 85%
    06:00 +5°C° 0.4 mm 5 mps 690 mmHg 84%
    07:00 +5°C° 0.4 mm 5 mps 691 mmHg 83%
    08:00 +4°C° 0.2 mm 6 mps 691 mmHg 80%
    09:00 +4°C° 0.2 mm 7 mps 691 mmHg 77%
    10:00 +4°C° 0.2 mm 8 mps 692 mmHg 74%
    11:00 +4°C° 0.1 mm 7 mps 692 mmHg 71%
    12:00 +4°C° 0.1 mm 7 mps 692 mmHg 67%
    13:00 +4°C° 0.1 mm 7 mps 692 mmHg 64%
    14:00 +4°C° 0 mm 7 mps 692 mmHg 64%
    15:00 +4°C° 0 mm 7 mps 693 mmHg 64%
    16:00 +4°C° 0 mm 6 mps 693 mmHg 64%
    17:00 +3°C° 0 mm 5 mps 693 mmHg 67%
    18:00 +3°C° 0 mm 4 mps 693 mmHg 71%
    19:00 +3°C° 0 mm 4 mps 693 mmHg 75%
    20:00 +3°C° 0 mm 4 mps 693 mmHg 76%
    21:00 +3°C° 0 mm 4 mps 692 mmHg 77%
    22:00 +2°C° 0 mm 5 mps 692 mmHg 77%
    23:00 +2°C° 0.4 mm 5 mps 692 mmHg 78%

    28 September, Friday

    Time Temperature Precipitation Wind Pressure Humidity
    00:00 +2°C° 0.4 mm 5 mps 691 mmHg 79%
    01:00 +2°C° 0.4 mm 6 mps 691 mmHg 80%
    02:00 +1°C° 1.4 mm 6 mps 691 mmHg 81%
    03:00 +1°C° 1.4 mm 6 mps 690 mmHg 83%
    04:00 +1°C° 1.4 mm 6 mps 690 mmHg 84%
    05:00 +1°C° 1.6 mm 6 mps 690 mmHg 85%
    06:00 +1°C° 1.6 mm 5 mps 691 mmHg 86%
    07:00 +1°C° 1.6 mm 5 mps 691 mmHg 87%
    08:00 +1°C° 0.6 mm 5 mps 691 mmHg 87%
    09:00 +1°C° 0.6 mm 5 mps 691 mmHg 86%
    10:00 +2°C° 0.6 mm 5 mps 692 mmHg 86%
    11:00 +3°C° 0.2 mm 4 mps 692 mmHg 86%
    12:00 +3°C° 0.2 mm 4 mps 692 mmHg 85%
    13:00 +4°C° 0.2 mm 4 mps 692 mmHg 84%
    14:00 +3°C° 0.3 mm 4 mps 693 mmHg 85%
    15:00 +3°C° 0.3 mm 4 mps 693 mmHg 86%
    16:00 +3°C° 0.3 mm 3 mps 693 mmHg 87%
    17:00 +3°C° 0.5 mm 3 mps 693 mmHg 88%
    18:00 +4°C° 0.5 mm 2 mps 693 mmHg 90%
    19:00 +3°C° 0.5 mm 2 mps 694 mmHg 91%
    20:00 +3°C° 0.4 mm 2 mps 694 mmHg 92%
    21:00 +3°C° 0.4 mm 2 mps 694 mmHg 92%
    22:00 +3°C° 0.4 mm 2 mps 694 mmHg 93%
    23:00 +3°C° 0.4 mm 2 mps 694 mmHg 93%

    29 September, Saturday

    Time Temperature Precipitation Wind Pressure Humidity
    00:00 +4°C° 0.4 mm 2 mps 694 mmHg 93%
    01:00 +4°C° 0.4 mm 2 mps 695 mmHg 93%
    02:00 +4°C° 0.6 mm 2 mps 695 mmHg 93%
    03:00 +4°C° 0.6 mm 2 mps 695 mmHg 94%
    04:00 +4°C° 0.6 mm 2 mps 696 mmHg 94%
    05:00 +4°C° 0.1 mm 2 mps 696 mmHg 94%
    06:00 +4°C° 0.1 mm 2 mps 697 mmHg 94%
    07:00 +5°C° 0.1 mm 1 mps 697 mmHg 94%
    08:00 +6°C° 0.1 mm 1 mps 697 mmHg 92%
    09:00 +7°C° 0.1 mm 1 mps 698 mmHg 90%
    10:00 +8°C° 0.1 mm 1 mps 698 mmHg 88%
    11:00 +9°C° 0 mm 1 mps 698 mmHg 86%
    12:00 +9°C° 0 mm 1 mps 698 mmHg 85%
    13:00 +10°C° 0 mm 1 mps 699 mmHg 83%
    14:00 +10°C° 0 mm 1 mps 699 mmHg 83%
    15:00 +10°C° 0 mm 1 mps 699 mmHg 83%
    16:00 +9°C° 0 mm 0 mps 699 mmHg 83%
    17:00 +8°C° 0 mm 0 mps 699 mmHg 86%
    18:00 +7°C° 0 mm 0 mps 699 mmHg 90%
    19:00 +6°C° 0 mm 1 mps 699 mmHg 93%
    20:00 +6°C° 0 mm 1 mps 699 mmHg 94%
    21:00 +6°C° 0 mm 1 mps 699 mmHg 94%
    22:00 +5°C° 0 mm 1 mps 700 mmHg 95%
    23:00 +5°C° 0 mm 1 mps 700 mmHg 95%
    Show more